When you browse on this site, cookies collect data to enhance your experience and personalize the content and advertising you see.
Visit our Privacy Policy to learn more. By continuing to use the site, you agree to this use of cookies and data.
  • în România
  • Lista ţărilor
  • Pe 7 zile
  • Temperatura apei
  • Hartă satelitară
  • Meteo pe hartă
  • Widget-uri
  • user-avatar
    Intrare

    Meteo pe oră la Les Pennes-Mirabeau

    Astăzi, 19 Iunie, Miercuri

    Timp Temperatura Precipitaţii Vânt Presiune Umiditate
    00:00 +23°C° 0 mm 1 m/s 751 mmHg 49%
    01:00 +23°C° 0 mm 1 m/s 750 mmHg 49%
    02:00 +23°C° 0 mm 1 m/s 750 mmHg 49%
    03:00 +23°C° 0 mm 2 m/s 750 mmHg 49%
    04:00 +23°C° 0 mm 2 m/s 750 mmHg 47%
    05:00 +24°C° 0 mm 2 m/s 750 mmHg 46%
    06:00 +24°C° 0 mm 2 m/s 750 mmHg 43%
    07:00 +25°C° 0 mm 2 m/s 750 mmHg 42%
    08:00 +26°C° 0 mm 3 m/s 750 mmHg 40%
    09:00 +27°C° 0 mm 4 m/s 750 mmHg 39%
    10:00 +28°C° 0 mm 4 m/s 751 mmHg 37%
    11:00 +28°C° 0 mm 5 m/s 751 mmHg 36%
    12:00 +29°C° 0 mm 4 m/s 751 mmHg 34%
    13:00 +28°C° 0 mm 4 m/s 750 mmHg 33%
    14:00 +28°C° 0 mm 4 m/s 750 mmHg 33%
    15:00 +28°C° 0 mm 4 m/s 750 mmHg 32%
    16:00 +27°C° 0 mm 4 m/s 750 mmHg 36%
    17:00 +26°C° 0 mm 3 m/s 749 mmHg 40%
    18:00 +25°C° 0 mm 3 m/s 749 mmHg 44%
    19:00 +25°C° 0 mm 2 m/s 750 mmHg 47%
    20:00 +24°C° 0 mm 1 m/s 750 mmHg 50%
    21:00 +23°C° 0 mm 1 m/s 750 mmHg 52%
    22:00 +23°C° 0 mm 1 m/s 750 mmHg 53%
    23:00 +21°C° 0 mm 0 m/s 750 mmHg 53%

    Mâine, 20 Iunie, Joi

    Timp Temperatura Precipitaţii Vânt Presiune Umiditate
    00:00 +20°C° 0 mm 0 m/s 750 mmHg 54%
    01:00 +22°C° 0 mm 1 m/s 750 mmHg 54%
    02:00 +22°C° 0 mm 1 m/s 750 mmHg 55%
    03:00 +21°C° 0 mm 2 m/s 750 mmHg 56%
    04:00 +21°C° 0 mm 2 m/s 750 mmHg 53%
    05:00 +23°C° 0 mm 1 m/s 750 mmHg 50%
    06:00 +23°C° 0 mm 1 m/s 750 mmHg 48%
    07:00 +24°C° 0 mm 2 m/s 750 mmHg 45%
    08:00 +26°C° 0 mm 2 m/s 750 mmHg 42%
    09:00 +27°C° 0 mm 3 m/s 750 mmHg 39%
    10:00 +28°C° 0 mm 3 m/s 750 mmHg 38%
    11:00 +29°C° 0 mm 3 m/s 750 mmHg 37%
    12:00 +31°C° 0 mm 3 m/s 750 mmHg 36%
    13:00 +32°C° 0 mm 4 m/s 750 mmHg 36%
    14:00 +32°C° 0 mm 4 m/s 750 mmHg 37%
    15:00 +33°C° 0 mm 4 m/s 750 mmHg 37%
    16:00 +30°C° 0 mm 4 m/s 750 mmHg 41%
    17:00 +29°C° 0 mm 3 m/s 750 mmHg 45%
    18:00 +28°C° 0 mm 3 m/s 750 mmHg 49%
    19:00 +27°C° 0 mm 3 m/s 750 mmHg 51%
    20:00 +27°C° 0 mm 3 m/s 750 mmHg 54%
    21:00 +26°C° 0 mm 3 m/s 750 mmHg 56%
    22:00 +26°C° 0 mm 2 m/s 750 mmHg 59%
    23:00 +25°C° 0 mm 2 m/s 751 mmHg 62%

    Poimâine, 21 Iunie, Vineri

    Timp Temperatura Precipitaţii Vânt Presiune Umiditate
    00:00 +25°C° 0 mm 2 m/s 751 mmHg 65%
    01:00 +24°C° 0 mm 2 m/s 751 mmHg 65%
    02:00 +24°C° 0 mm 2 m/s 751 mmHg 65%
    03:00 +24°C° 0 mm 2 m/s 750 mmHg 66%
    04:00 +24°C° 0 mm 2 m/s 750 mmHg 65%
    05:00 +24°C° 0 mm 2 m/s 750 mmHg 64%
    06:00 +24°C° 0 mm 2 m/s 750 mmHg 63%
    07:00 +26°C° 0 mm 2 m/s 751 mmHg 60%
    08:00 +27°C° 0 mm 2 m/s 751 mmHg 56%
    09:00 +28°C° 0 mm 2 m/s 751 mmHg 52%
    10:00 +28°C° 0 mm 3 m/s 751 mmHg 52%
    11:00 +28°C° 0 mm 4 m/s 751 mmHg 51%
    12:00 +29°C° 0 mm 4 m/s 751 mmHg 50%
    13:00 +29°C° 0 mm 4 m/s 751 mmHg 52%
    14:00 +28°C° 0 mm 4 m/s 750 mmHg 54%
    15:00 +28°C° 0 mm 5 m/s 750 mmHg 56%
    16:00 +27°C° 0.1 mm 4 m/s 750 mmHg 58%
    17:00 +27°C° 0.1 mm 3 m/s 750 mmHg 61%
    18:00 +26°C° 0.1 mm 2 m/s 750 mmHg 63%
    19:00 +25°C° 0 mm 2 m/s 751 mmHg 66%
    20:00 +25°C° 0 mm 1 m/s 751 mmHg 68%
    21:00 +24°C° 0 mm 1 m/s 751 mmHg 71%
    22:00 +24°C° 0 mm 1 m/s 751 mmHg 72%
    23:00 +24°C° 0 mm 1 m/s 751 mmHg 72%

    22 Iunie, Sâmbătă

    Timp Temperatura Precipitaţii Vânt Presiune Umiditate
    00:00 +23°C° 0 mm 1 m/s 751 mmHg 73%
    01:00 +23°C° 0 mm 1 m/s 751 mmHg 74%
    02:00 +23°C° 0 mm 2 m/s 750 mmHg 74%
    03:00 +23°C° 0 mm 2 m/s 750 mmHg 75%
    04:00 +23°C° 0 mm 2 m/s 750 mmHg 74%
    05:00 +23°C° 0 mm 2 m/s 751 mmHg 72%
    06:00 +24°C° 0 mm 3 m/s 751 mmHg 71%
    07:00 +25°C° 0 mm 3 m/s 751 mmHg 64%
    08:00 +26°C° 0 mm 3 m/s 751 mmHg 56%
    09:00 +28°C° 0 mm 3 m/s 751 mmHg 49%
    10:00 +29°C° 0 mm 4 m/s 751 mmHg 45%
    11:00 +30°C° 0 mm 5 m/s 751 mmHg 40%
    12:00 +32°C° 0 mm 5 m/s 751 mmHg 36%
    13:00 +32°C° 0 mm 5 m/s 750 mmHg 35%
    14:00 +32°C° 0 mm 5 m/s 750 mmHg 35%
    15:00 +32°C° 0 mm 5 m/s 750 mmHg 35%
    16:00 +30°C° 0 mm 5 m/s 750 mmHg 37%
    17:00 +30°C° 0 mm 5 m/s 750 mmHg 39%
    18:00 +29°C° 0 mm 4 m/s 750 mmHg 41%
    19:00 +28°C° 0 mm 4 m/s 750 mmHg 44%
    20:00 +27°C° 0 mm 4 m/s 750 mmHg 47%
    21:00 +26°C° 0 mm 4 m/s 751 mmHg 49%
    22:00 +26°C° 0 mm 4 m/s 751 mmHg 53%
    23:00 +25°C° 0 mm 4 m/s 751 mmHg 57%

    23 Iunie, Duminică

    Timp Temperatura Precipitaţii Vânt Presiune Umiditate
    00:00 +24°C° 0 mm 3 m/s 751 mmHg 61%
    01:00 +24°C° 0 mm 3 m/s 750 mmHg 62%
    02:00 +24°C° 0 mm 2 m/s 750 mmHg 64%
    03:00 +23°C° 0 mm 2 m/s 750 mmHg 65%
    04:00 +24°C° 0 mm 1 m/s 751 mmHg 63%
    05:00 +24°C° 0 mm 1 m/s 751 mmHg 60%
    06:00 +25°C° 0 mm 1 m/s 751 mmHg 58%
    07:00 +26°C° 0 mm 1 m/s 751 mmHg 52%
    08:00 +28°C° 0 mm 1 m/s 751 mmHg 46%
    09:00 +30°C° 0 mm 1 m/s 751 mmHg 40%
    10:00 +30°C° 0 mm 1 m/s 751 mmHg 37%
    11:00 +31°C° 0 mm 2 m/s 752 mmHg 34%
    12:00 +32°C° 0 mm 2 m/s 752 mmHg 31%
    13:00 +33°C° 0 mm 3 m/s 751 mmHg 32%
    14:00 +33°C° 0 mm 3 m/s 751 mmHg 32%
    15:00 +33°C° 0 mm 4 m/s 751 mmHg 33%
    16:00 +32°C° 0 mm 4 m/s 751 mmHg 38%
    17:00 +29°C° 0 mm 3 m/s 751 mmHg 43%
    18:00 +28°C° 0 mm 3 m/s 751 mmHg 48%
    19:00 +27°C° 0 mm 2 m/s 752 mmHg 49%
    20:00 +27°C° 0 mm 1 m/s 752 mmHg 50%
    21:00 +24°C° 0 mm 0 m/s 753 mmHg 51%
    22:00 +26°C° 0 mm 1 m/s 753 mmHg 51%
    23:00 +26°C° 0 mm 1 m/s 753 mmHg 51%

    24 Iunie, Luni

    Timp Temperatura Precipitaţii Vânt Presiune Umiditate
    00:00 +25°C° 0 mm 2 m/s 753 mmHg 52%
    01:00 +25°C° 0 mm 1 m/s 753 mmHg 53%
    02:00 +25°C° 0 mm 1 m/s 753 mmHg 55%
    03:00 +24°C° 0 mm 1 m/s 753 mmHg 57%
    04:00 +25°C° 0 mm 1 m/s 753 mmHg 55%
    05:00 +25°C° 0 mm 1 m/s 753 mmHg 54%
    06:00 +26°C° 0 mm 1 m/s 753 mmHg 53%
    07:00 +27°C° 0 mm 2 m/s 753 mmHg 48%
    08:00 +29°C° 0 mm 2 m/s 753 mmHg 44%
    09:00 +31°C° 0 mm 2 m/s 753 mmHg 39%
    10:00 +31°C° 0 mm 3 m/s 753 mmHg 39%
    11:00 +33°C° 0 mm 3 m/s 753 mmHg 38%
    12:00 +34°C° 0 mm 4 m/s 753 mmHg 37%
    13:00 +34°C° 0 mm 4 m/s 753 mmHg 37%
    14:00 +34°C° 0 mm 4 m/s 753 mmHg 36%
    15:00 +34°C° 0 mm 4 m/s 753 mmHg 36%
    16:00 +33°C° 0 mm 4 m/s 753 mmHg 39%
    17:00 +32°C° 0 mm 4 m/s 753 mmHg 41%
    18:00 +31°C° 0 mm 3 m/s 753 mmHg 43%
    19:00 +30°C° 0 mm 3 m/s 753 mmHg 46%
    20:00 +29°C° 0 mm 3 m/s 754 mmHg 48%
    21:00 +28°C° 0 mm 2 m/s 754 mmHg 50%
    22:00 +27°C° 0 mm 2 m/s 754 mmHg 50%
    23:00 +27°C° 0 mm 2 m/s 754 mmHg 50%
    Arată mai mult